GEFSMA_con_prob3kmehi_240.txt.gz
EHI
0 0 1 1 2 2 2 1 0 0 0 0 0 0 0 0 0 0 1 5 11 13 10 5 2 0 0 0 0 0 0 0 0 0 0 0 0 0 0 0 0 0 0
0 1 2 2 1 1 1 0 0 0 0 0 0 0 0 0 0 0 0 3 8 10 10 7 4 1 1 1 1 0 0 0 0 0 0 0 0 0 0 0 0 0 0
2 3 3 2 1 1 1 0 0 0 0 0 0 0 0 0 0 0 0 1 3 7 9 8 6 5 4 4 3 2 0 0 0 0 0 0 0 0 0 0 0 0 0
6 5 4 3 2 2 2 1 0 0 0 0 0 0 0 0 0 0 0 0 1 3 5 6 8 10 10 9 7 5 2 0 0 0 0 0 0 0 0 0 0 0 0
9 7 5 4 4 4 3 1 0 0 0 0 0 0 0 0 0 0 0 0 0 1 1 3 7 10 13 13 12 10 7 3 2 1 0 0 0 0 0 0 0 0 0
10 9 7 6 6 5 4 1 0 0 0 0 0 0 0 0 0 0 0 0 0 0 0 1 2 6 11 14 15 14 12 8 5 3 1 1 1 0 0 0 0 0 0
10 10 9 8 7 6 4 2 1 1 0 0 0 0 0 0 0 0 0 0 0 0 0 0 1 2 6 9 12 14 14 12 9 7 4 3 2 1 1 0 0 0 0
9 9 10 10 9 6 4 3 2 2 1 1 0 0 0 0 0 0 0 0 0 0 1 1 1 2 3 4 6 10 12 11 10 9 7 5 4 3 2 1 1 0 0
9 9 10 10 8 6 4 4 3 3 3 1 0 0 0 0 0 0 0 0 0 0 1 1 2 2 2 2 3 5 8 8 8 10 10 7 6 5 4 3 2 1 1
9 10 10 9 9 8 6 5 4 4 2 1 0 0 0 0 0 0 0 0 0 0 0 1 1 1 1 1 2 3 3 3 4 8 10 8 7 7 6 4 2 2 2
10 10 10 10 11 9 6 4 3 2 1 0 0 0 0 0 0 0 0 0 0 0 0 1 1 0 0 0 1 1 1 1 1 3 6 6 6 7 6 4 1 1 1
10 10 9 10 11 10 7 5 3 2 1 0 0 0 0 0 0 0 0 0 0 0 0 0 0 0 0 0 0 0 0 0 0 0 2 3 5 6 5 3 1 0 0
12 10 8 9 10 10 9 7 4 2 1 0 0 0 0 0 0 0 0 0 0 0 0 0 0 0 1 0 0 0 0 0 0 0 0 1 3 4 4 3 1 1 0
14 12 11 10 11 12 12 8 5 2 0 0 0 1 1 0 0 0 0 0 0 0 0 0 0 0 0 0 0 0 0 0 0 0 0 0 1 2 2 2 2 1 1
18 18 17 15 14 15 12 7 3 2 1 0 1 2 2 1 1 0 0 1 1 1 0 0 0 0 0 0 0 0 0 0 0 0 0 0 0 0 1 1 1 1 0
21 22 22 19 18 17 14 8 4 3 2 2 2 2 3 2 1 0 0 1 2 2 1 0 1 0 0 0 0 0 0 0 1 1 1 0 0 0 0 0 0 0 0
22 24 23 20 19 18 15 10 7 5 5 4 4 4 3 2 1 0 0 1 2 2 1 0 0 0 0 0 0 0 0 1 2 2 2 1 0 0 0 0 0 0 0
20 22 22 20 19 19 16 13 10 10 10 8 7 6 5 2 1 1 1 2 2 1 0 0 0 0 0 0 0 0 0 1 2 3 3 2 1 0 0 0 0 0 0
18 19 19 19 19 18 17 16 14 13 13 11 9 9 7 5 3 3 3 3 2 1 1 0 0 0 0 0 0 0 0 0 1 1 2 2 1 0 0 0 0 0 0
17 17 16 17 18 18 18 17 16 14 12 11 10 9 8 7 6 5 5 4 3 3 2 1 1 0 0 0 0 0 0 0 0 0 1 1 0 0 0 0 0 0 0
17 16 15 17 19 19 18 15 12 11 9 7 7 8 8 7 6 5 4 3 3 3 3 3 2 1 1 0 0 0 0 0 0 0 0 0 0 0 0 0 0 1 1
17 16 16 18 20 18 14 10 7 6 5 4 5 6 6 5 4 3 2 1 2 3 3 3 3 3 2 1 1 0 0 0 0 0 0 0 0 0 0 0 0 0 0
18 17 16 17 17 14 9 5 3 3 3 4 5 6 6 4 4 3 2 1 1 2 2 2 3 3 3 3 2 1 0 0 0 0 0 0 0 0 0 0 0 0 0
19 17 15 14 14 11 7 4 3 2 3 5 7 8 6 5 4 3 3 2 2 1 1 1 1 2 2 2 2 1 0 0 0 0 0 0 0 0 0 0 0 0 0
19 16 14 12 11 8 5 3 3 3 3 5 7 7 6 4 3 3 2 1 1 1 1 1 0 1 1 1 1 0 0 0 0 0 0 1 1 1 0 0 0 0 0
18 15 12 10 8 6 3 2 3 3 4 4 5 6 5 4 3 3 1 0 1 2 2 2 1 0 0 0 0 0 0 0 0 0 1 2 2 2 1 0 0 0 0

GEFSMA_con_prob3kmehi_246.txt.gz
EHI
0 0 0 0 1 0 0 0 0 0 0 0 0 0 0 0 0 0 1 3 4 4 4 5 6 6 5 3 3 3 3 3 3 3 3 3 3 3 3 3 3 3 2
0 0 0 0 1 0 0 0 0 0 0 0 0 0 0 0 0 0 1 2 4 4 5 6 8 7 5 4 4 3 3 3 3 3 3 3 3 3 3 3 3 3 3
0 0 0 0 0 0 0 0 0 0 0 0 0 0 0 0 0 0 0 1 3 5 5 7 9 7 5 5 4 4 3 3 3 3 3 4 3 3 3 3 3 3 3
0 0 0 0 0 0 0 0 0 0 0 0 0 0 0 0 0 0 0 1 2 4 4 6 8 7 6 5 4 3 3 2 1 2 3 4 3 3 3 3 3 3 2
1 1 1 1 1 1 1 1 1 0 0 0 0 0 0 0 0 0 0 0 1 2 3 4 6 6 6 6 4 3 2 2 1 1 1 2 2 1 1 2 2 1 1
3 3 3 3 2 2 2 1 1 0 0 0 0 0 0 0 0 0 0 0 0 1 2 3 4 5 6 5 3 2 1 1 1 1 0 1 1 0 0 1 1 0 0
6 5 5 4 3 3 3 2 0 0 0 0 0 0 0 0 0 0 0 0 0 0 1 1 2 3 3 4 3 2 1 1 2 1 0 0 0 0 0 0 0 0 0
6 6 4 3 3 3 2 1 0 0 0 0 0 0 0 0 0 0 0 0 0 0 0 0 1 1 1 2 3 3 3 3 2 1 0 0 0 0 0 0 0 0 0
4 4 4 4 4 3 2 1 2 2 1 0 0 0 0 0 0 0 0 0 0 0 0 0 0 0 0 1 1 2 2 3 3 2 1 0 0 0 0 0 0 0 0
2 3 4 5 6 5 3 3 4 4 2 2 2 1 0 0 0 0 0 0 0 0 0 0 0 0 0 0 0 1 1 1 2 2 1 1 0 0 0 0 0 0 0
4 4 5 6 6 6 5 4 4 4 3 3 3 2 1 0 0 0 0 0 0 0 0 0 0 0 0 0 0 0 0 0 1 2 2 2 1 0 0 0 0 0 0
8 8 8 7 6 5 5 4 4 4 4 4 4 3 1 1 1 0 0 0 0 0 0 0 0 0 0 0 0 0 0 0 0 1 1 2 2 1 0 0 0 0 1
12 11 10 9 6 5 4 4 5 5 5 4 3 3 2 2 1 1 0 0 0 0 0 0 0 0 1 1 0 0 0 0 0 0 0 1 1 1 0 0 1 1 2
13 13 12 10 7 4 3 4 5 6 5 4 4 4 3 2 1 1 1 1 1 1 1 0 0 1 2 2 1 0 0 0 0 0 0 0 0 0 0 0 1 2 2
15 14 13 11 7 4 4 4 5 5 5 5 5 5 5 4 3 2 2 3 3 2 2 2 1 1 2 3 2 1 1 0 0 0 0 0 0 0 0 0 1 1 1
16 15 13 10 7 5 3 3 4 4 3 3 3 4 5 5 5 4 4 5 5 4 4 3 2 1 2 2 2 2 2 1 0 0 0 0 0 0 0 0 0 0 0
17 16 14 9 6 3 1 1 2 3 2 2 2 2 3 4 4 5 5 5 5 5 5 4 3 3 2 1 1 2 2 1 0 0 0 0 0 0 0 0 0 0 0
16 14 12 9 5 2 1 1 1 2 2 2 2 2 3 2 3 4 4 4 4 4 4 3 3 3 3 2 1 1 1 1 0 0 0 0 0 0 0 0 0 0 0
13 11 8 6 4 4 4 4 3 2 1 1 1 2 3 2 2 3 3 3 3 3 3 3 3 2 2 3 2 1 0 0 0 0 0 0 0 0 0 0 0 0 0
10 8 6 4 3 4 6 6 4 3 2 1 0 1 3 2 1 1 3 3 3 2 3 3 2 1 1 3 3 1 0 0 0 0 0 0 0 0 0 0 0 0 0
8 8 6 5 4 4 4 4 5 5 5 3 1 1 1 1 0 1 2 3 3 3 3 2 1 0 1 2 3 2 1 0 0 0 0 0 0 0 0 0 0 0 0
10 10 9 7 7 5 2 1 3 6 6 4 2 1 1 1 1 0 1 1 2 2 2 2 1 0 0 1 3 3 2 1 1 1 0 0 0 0 0 0 0 0 0
12 13 12 10 9 7 2 0 1 3 4 4 4 3 2 2 1 0 0 0 1 1 1 2 1 1 1 1 2 3 3 2 2 2 1 0 0 0 0 0 0 0 0
14 14 13 11 10 6 2 0 0 1 2 4 6 5 3 2 1 0 0 0 0 1 1 1 2 2 2 1 2 3 3 3 2 2 2 1 0 1 1 0 0 0 0
14 13 12 10 8 5 2 0 0 1 3 5 5 4 2 1 0 0 0 0 0 1 1 1 2 2 2 1 1 2 3 3 1 1 1 2 2 2 2 1 0 0 0
14 12 11 9 8 5 2 0 0 1 4 5 5 3 1 0 0 0 0 0 0 0 0 0 1 1 1 0 0 1 3 3 2 1 1 2 3 3 3 2 1 0 0

GEFSMA_con_prob3kmehi_252.txt.gz
EHI
2 1 1 2 2 1 1 1 1 1 1 0 1 2 2 1 1 1 2 4 5 4 3 3 4 4 5 5 4 3 2 1 0 0 0 0 0 0 0 0 0 0 0
3 2 3 3 3 2 2 2 2 2 2 1 1 1 1 1 1 2 3 5 5 5 4 5 5 6 5 4 3 3 2 1 0 0 0 0 0 0 0 0 0 0 0
4 5 5 5 4 4 4 4 4 4 4 3 2 1 0 0 1 2 3 4 4 4 4 5 6 6 5 3 2 2 1 0 0 0 0 0 0 0 0 0 0 0 0
4 5 6 6 6 5 5 5 5 4 5 4 3 1 0 0 1 1 1 3 3 3 3 4 4 4 4 3 3 2 1 0 0 0 0 0 0 0 0 0 0 0 0
4 4 6 7 6 5 5 5 5 5 5 4 2 0 0 1 1 0 1 2 3 3 2 3 3 3 3 3 3 3 2 1 0 0 0 0 0 0 0 0 0 0 0
5 4 5 6 6 5 5 5 5 4 5 4 1 0 0 1 1 0 1 2 3 1 1 1 2 2 3 3 3 3 3 2 1 0 0 0 0 0 0 0 0 0 0
4 4 5 5 5 5 5 6 6 5 5 5 3 1 0 0 0 0 1 2 2 1 0 1 2 3 3 3 3 3 3 2 1 0 0 0 0 0 0 0 0 0 0
4 5 5 6 6 6 7 7 8 6 4 5 4 2 1 0 0 0 0 1 1 1 1 1 2 3 3 4 4 3 2 2 1 0 0 0 0 0 0 0 0 0 0
6 7 7 7 7 8 8 7 7 6 4 4 5 4 2 1 0 0 0 0 0 1 2 2 2 2 3 5 4 2 1 1 0 0 0 0 0 0 0 0 0 0 0
8 9 11 10 9 8 7 6 5 4 2 2 4 5 4 3 1 0 0 0 0 1 1 1 1 1 3 4 3 1 0 0 0 0 0 0 0 0 0 0 0 0 0
11 12 13 14 12 8 6 5 4 3 2 2 4 6 6 5 3 1 0 0 0 0 0 0 0 1 1 1 1 0 0 0 0 0 0 0 0 0 0 0 0 0 0
14 14 15 17 16 12 8 7 6 5 5 6 8 8 7 6 4 2 0 0 0 0 0 0 0 0 1 1 1 0 0 0 0 0 0 0 0 0 0 0 0 0 0
14 15 17 19 19 16 14 11 9 8 9 11 12 10 7 6 5 3 1 0 0 0 1 0 0 0 0 1 1 0 0 0 0 0 0 0 0 0 0 0 0 0 0
14 16 17 19 19 19 18 16 13 11 11 12 11 9 7 6 5 4 3 2 1 1 1 1 1 1 1 1 1 0 0 0 0 0 0 0 0 0 0 0 0 0 0
15 16 17 18 19 19 19 18 16 13 12 12 10 8 7 6 5 6 6 6 5 3 2 3 3 2 2 2 2 1 0 0 0 0 0 0 0 0 0 0 0 0 0
14 14 14 16 17 17 20 20 17 12 9 9 9 7 7 5 6 8 9 9 8 6 5 6 4 2 2 2 2 2 1 0 0 0 0 0 0 0 0 0 0 0 0
13 13 13 13 13 15 19 20 16 11 7 6 6 7 8 7 8 9 10 10 9 7 7 7 4 2 2 3 3 3 2 1 0 0 0 0 0 0 0 0 0 0 0
12 12 13 13 13 15 18 17 15 12 10 7 7 11 13 11 11 11 11 9 8 7 7 6 4 2 2 3 4 5 4 2 0 0 0 0 0 0 0 0 0 0 0
13 14 15 15 16 17 16 14 13 13 11 10 12 16 17 15 14 14 12 11 9 8 9 8 5 3 2 2 4 4 4 3 1 0 0 0 0 0 0 0 0 0 0
17 18 18 18 18 18 16 13 12 12 11 12 15 17 16 14 13 12 11 11 11 11 12 11 8 4 2 2 2 2 2 2 2 1 0 1 1 1 0 0 0 0 0
23 23 23 21 20 17 15 14 14 14 15 15 15 15 14 11 7 5 6 7 10 12 13 12 10 6 4 3 1 0 0 1 1 1 1 2 3 3 2 1 1 1 0
30 28 26 23 20 16 14 12 14 16 17 16 14 13 11 8 4 2 1 2 5 8 10 10 9 7 6 5 3 1 1 0 0 1 2 2 2 4 4 2 2 1 1
34 31 27 22 18 15 10 7 9 14 16 15 15 13 11 8 6 5 3 2 3 3 4 6 6 5 6 6 5 3 1 0 0 1 2 2 2 3 3 2 1 1 0
34 31 26 23 20 15 7 2 5 11 14 15 15 13 11 8 6 7 6 5 4 2 1 2 3 3 4 5 4 2 2 1 1 2 4 4 4 3 2 1 1 0 0
28 27 25 24 23 17 6 1 4 10 14 15 14 12 10 7 5 5 6 6 5 3 2 1 1 2 3 2 1 1 2 2 1 2 5 6 6 5 4 3 3 2 1
23 23 24 25 23 17 7 1 3 10 14 14 12 10 8 6 3 2 5 6 5 3 2 2 1 1 1 1 0 0 1 2 2 3 4 6 6 6 6 5 5 4 3

GEFSMA_con_prob3kmehi_258.txt.gz
EHI
7 8 10 9 6 6 8 10 7 5 7 7 6 6 4 4 6 4 4 8 11 11 10 9 7 5 4 3 2 1 0 0 0 0 0 0 0 0 0 0 0 0 0
12 13 13 12 9 7 8 9 7 6 6 6 6 6 5 6 6 4 4 7 10 9 9 9 7 6 5 4 3 2 1 1 0 0 0 0 0 0 0 0 0 0 0
14 15 15 13 11 9 8 8 8 7 7 7 7 7 6 6 6 5 5 7 8 7 8 9 7 5 4 4 4 3 2 2 1 0 0 0 0 0 0 0 0 0 0
12 12 11 11 11 11 8 7 6 6 6 7 7 8 7 7 7 7 7 10 10 8 8 9 8 5 3 3 3 4 4 4 2 1 0 0 0 0 0 0 0 0 0
14 13 11 11 11 11 9 7 6 5 5 5 6 7 8 9 10 9 9 10 11 10 10 8 7 4 2 2 3 4 6 5 4 2 1 1 0 0 0 0 0 0 0
17 16 15 13 11 11 9 8 6 4 5 6 5 5 6 10 12 11 9 7 7 8 10 9 7 4 2 2 2 3 4 5 5 4 3 2 1 0 0 0 0 0 0
16 17 16 15 13 13 12 10 8 6 7 7 4 2 4 7 9 9 8 5 3 4 8 12 11 7 4 2 2 2 3 5 6 7 6 4 1 0 0 0 0 0 0
15 15 17 16 15 15 15 14 13 11 10 8 5 3 2 3 5 5 4 4 3 3 5 10 14 13 10 6 3 1 2 4 6 8 8 5 2 0 0 0 0 0 0
19 18 18 17 16 16 16 17 17 16 14 11 9 7 3 1 2 2 1 2 5 5 5 7 10 14 14 11 7 3 2 2 3 5 6 4 2 0 0 0 0 0 0
25 25 24 23 20 18 17 16 16 17 16 12 11 10 8 4 3 2 1 2 6 8 7 5 6 8 11 12 11 8 4 1 1 2 2 2 1 1 1 0 0 0 0
30 30 30 29 26 22 19 17 16 17 14 11 11 11 10 9 8 6 3 2 4 7 8 6 4 5 8 11 12 10 6 2 0 0 1 2 2 2 1 0 0 0 0
29 30 31 31 30 27 23 20 18 17 14 12 12 11 9 9 10 8 6 4 3 4 5 6 5 6 7 9 10 9 6 2 0 0 1 1 2 1 1 0 0 0 0
26 28 32 33 32 30 28 25 23 20 17 14 13 13 10 7 8 7 6 5 3 2 2 4 6 7 7 8 9 8 5 2 0 0 0 0 0 0 0 0 0 1 1
26 31 35 35 32 30 29 28 26 23 20 16 15 15 13 8 6 7 7 7 5 3 2 3 5 6 7 8 9 8 6 2 0 0 0 0 0 0 0 0 0 1 2
25 32 36 33 29 28 28 27 27 25 22 19 17 16 15 9 5 6 8 9 8 6 5 4 4 5 6 7 8 8 7 3 1 0 0 0 0 0 0 0 0 1 1
24 29 31 29 27 27 27 26 25 24 24 23 18 16 15 10 4 3 6 10 12 12 10 6 4 4 5 7 8 9 7 3 1 0 0 0 0 0 0 0 0 0 0
27 27 27 26 25 26 26 26 24 23 23 22 20 16 14 12 8 5 5 10 14 15 13 9 5 5 6 7 8 8 5 2 1 0 0 0 0 0 0 0 0 0 0
29 27 25 26 25 25 26 26 23 21 19 19 20 18 14 13 14 10 8 11 14 14 13 10 7 6 6 6 7 6 3 1 1 0 0 0 0 0 0 0 0 0 0
30 28 27 28 27 25 25 24 21 19 18 18 20 20 15 14 15 14 11 13 13 12 12 10 7 5 4 4 5 5 2 1 1 0 0 0 0 0 0 0 0 0 0
32 31 30 31 28 24 23 22 20 18 19 20 21 21 19 16 15 14 14 15 14 13 11 8 6 5 4 4 5 4 2 2 2 1 0 0 0 0 0 0 0 0 0
33 33 32 30 26 21 18 19 19 19 20 21 22 23 21 17 14 11 11 12 12 11 10 8 6 6 5 4 4 3 1 1 1 1 0 0 1 1 1 2 1 0 0
34 33 32 29 24 19 14 13 15 18 21 23 24 23 21 17 13 10 7 5 6 7 6 7 8 7 6 4 3 2 1 1 1 1 0 0 1 2 3 4 3 1 0
36 34 32 30 27 19 11 7 7 13 19 23 24 24 21 18 16 12 6 3 3 3 2 4 6 7 5 4 3 2 1 1 2 1 1 0 0 1 2 3 2 1 0
36 35 33 32 28 20 11 5 4 9 15 19 22 23 23 21 17 11 7 5 3 2 0 1 3 4 3 3 3 2 1 1 1 1 1 0 0 0 1 1 1 0 0
35 34 32 31 27 20 12 6 5 10 15 18 20 21 21 19 13 7 6 6 5 3 1 0 1 1 1 1 1 1 0 0 0 1 1 0 1 1 2 2 1 1 0
34 32 30 29 27 20 13 7 6 13 18 19 19 18 16 14 9 4 5 7 7 4 1 0 0 0 0 0 0 0 0 0 0 1 0 1 2 2 2 2 2 2 1

GEFSMA_con_prob3kmehi_264.txt.gz
EHI
1 0 0 0 0 0 1 1 0 0 0 0 0 1 3 3 1 0 1 2 2 2 4 6 7 9 9 8 6 4 3 1 0 0 0 0 0 0 0 0 0 0 0
2 1 0 0 0 1 1 1 0 0 0 0 0 1 2 2 1 0 0 1 3 3 3 4 6 7 8 8 6 4 3 2 1 0 0 0 0 0 0 0 0 0 0
3 2 1 1 1 1 1 1 0 0 0 0 0 0 1 1 0 0 0 0 1 1 1 2 4 5 5 5 4 3 3 2 1 0 0 0 0 0 0 0 0 0 0
4 4 3 2 2 1 0 0 0 0 0 0 0 0 0 0 0 0 0 0 0 0 0 1 3 3 3 3 2 1 1 1 1 0 0 0 0 0 0 0 0 0 0
7 6 4 3 3 2 1 0 0 0 0 0 0 0 0 0 0 0 0 0 0 0 0 1 2 2 2 2 1 0 0 0 0 0 0 0 0 0 0 0 0 0 0
8 6 4 3 2 2 1 0 0 0 0 0 0 0 0 0 0 0 0 0 0 0 0 0 1 1 2 3 1 0 0 0 0 0 0 0 0 0 0 0 0 0 0
7 7 6 4 2 1 0 1 2 1 0 0 0 0 0 0 0 0 0 0 0 0 0 0 0 0 1 2 1 0 0 1 1 1 0 0 0 0 0 0 0 0 0
6 7 8 6 4 2 2 2 3 2 0 0 0 0 0 0 0 0 0 0 0 0 0 0 0 0 0 0 0 0 0 0 0 0 0 0 0 0 0 0 0 0 0
8 8 8 7 7 5 4 4 3 1 0 0 0 0 0 0 0 0 0 0 0 0 0 0 0 0 0 0 0 0 0 0 0 0 0 0 0 0 0 0 0 0 0
11 11 9 7 7 6 6 5 3 1 0 0 0 0 0 0 0 0 0 0 0 0 0 0 0 0 0 0 0 0 0 0 0 0 0 0 0 0 0 0 0 0 0
12 12 11 9 8 7 6 4 2 0 0 0 0 0 0 0 0 0 0 0 0 0 0 0 0 0 0 0 1 1 1 0 0 0 0 0 0 0 0 0 0 0 0
10 10 10 10 9 7 6 4 1 0 0 0 0 0 0 0 0 0 0 0 0 0 0 0 0 0 0 0 1 2 2 1 0 0 0 0 0 0 0 0 0 0 0
7 7 8 8 8 7 6 5 3 1 1 1 1 1 1 1 1 1 1 0 0 0 0 0 0 0 0 0 1 1 1 1 0 0 0 0 0 0 0 0 0 0 0
4 4 5 5 6 7 7 6 5 4 3 2 2 2 2 2 2 2 1 0 0 0 0 0 0 0 0 0 0 0 0 0 0 0 0 0 0 0 0 0 0 0 0
3 3 2 3 6 7 7 6 5 5 4 2 1 1 1 1 1 1 0 0 1 1 1 0 0 0 0 0 0 0 0 0 0 0 0 0 0 0 0 0 0 0 0
2 1 1 3 5 7 8 6 4 4 3 1 0 0 0 0 0 0 0 1 2 2 2 1 0 0 0 0 0 0 0 0 0 0 0 0 0 0 0 0 0 0 0
2 1 1 3 5 7 8 7 4 3 3 3 1 0 0 1 1 0 0 2 3 3 2 1 0 0 0 0 0 0 0 0 0 0 0 0 0 0 0 0 0 0 0
4 4 3 4 5 6 8 8 7 5 5 4 3 1 1 2 2 1 0 1 2 2 2 1 0 0 0 0 0 0 0 0 0 0 0 0 0 0 0 0 0 0 0
7 6 6 6 6 7 8 9 9 7 6 5 4 3 2 3 2 1 0 0 1 1 1 0 0 0 0 0 0 0 0 0 0 0 0 0 0 0 0 0 0 0 0
7 7 7 8 8 9 9 8 8 6 4 3 4 4 4 3 2 1 1 0 0 0 0 0 0 0 0 0 0 0 0 0 0 0 0 0 0 0 0 0 0 0 0
7 8 8 9 10 9 7 5 4 3 2 2 3 3 4 3 2 2 2 1 0 0 0 0 0 0 0 0 0 0 0 0 0 0 0 0 0 0 0 0 0 0 0
10 9 10 9 8 6 4 2 1 1 2 3 3 3 4 4 3 3 3 1 0 0 0 0 0 0 0 0 0 0 0 0 0 0 0 0 0 0 0 0 0 0 0
14 13 10 8 6 4 3 1 0 1 2 3 4 5 5 4 4 3 2 1 0 0 0 0 0 0 0 0 0 0 0 0 0 0 0 0 0 0 0 0 0 0 0
17 15 11 9 7 5 3 2 1 1 3 4 4 4 4 4 3 2 1 0 0 0 0 0 0 0 0 0 0 0 0 0 0 0 0 0 0 1 1 1 1 1 0
19 17 13 11 9 7 4 2 1 1 3 4 3 2 2 3 2 1 1 1 1 0 0 0 0 0 0 0 0 0 0 0 0 0 0 0 0 1 2 2 2 1 1
20 18 15 12 11 7 4 2 1 2 3 3 2 1 1 2 1 1 2 2 2 1 0 0 0 0 0 0 0 0 0 0 0 0 0 0 0 0 1 1 1 1 0

GEFSMA_con_prob3kmehi_270.txt.gz
EHI
0 0 0 0 0 0 0 0 0 0 0 0 0 0 0 0 0 0 0 2 4 4 2 1 1 2 2 1 0 0 0 0 0 0 0 0 0 0 0 0 0 0 0
0 0 0 0 0 0 0 0 0 0 0 0 0 0 0 0 0 0 0 2 4 5 4 3 2 2 2 2 1 0 0 0 0 0 0 0 0 0 0 0 0 0 0
0 0 0 0 0 0 0 0 0 0 0 0 0 0 0 0 0 0 0 1 2 3 4 4 3 1 1 1 1 0 0 0 0 0 0 0 0 0 0 0 0 0 0
0 0 0 0 0 0 0 0 0 0 0 0 0 0 0 0 0 0 0 0 0 1 2 2 2 1 1 1 0 0 0 0 0 0 0 0 0 0 0 0 0 0 0
0 0 0 0 0 0 0 0 0 0 0 0 0 0 0 0 0 0 0 0 0 0 0 1 2 2 2 1 1 1 0 0 0 0 0 0 0 0 0 0 0 0 0
0 0 0 0 0 0 0 0 0 0 0 0 0 0 0 0 0 0 0 0 0 0 0 0 1 1 2 2 2 2 1 0 1 2 1 1 0 0 0 0 0 0 0
0 1 1 1 0 0 0 0 0 1 1 0 0 0 0 0 0 0 0 0 0 0 0 0 0 0 1 1 2 3 1 0 2 3 3 2 1 0 0 0 0 0 0
3 3 3 2 0 0 0 0 1 2 1 0 0 0 0 0 0 0 0 0 0 0 0 0 0 0 0 0 1 1 0 0 1 2 3 3 1 0 0 0 0 0 0
6 6 6 4 1 0 0 0 1 1 1 0 0 0 0 0 0 0 0 0 0 0 0 0 0 0 0 0 0 0 0 0 0 1 3 2 1 0 0 0 0 0 0
5 6 6 4 1 0 0 0 0 0 0 0 0 0 0 0 0 0 0 0 0 0 0 0 0 0 0 0 0 0 0 0 0 0 1 1 0 0 0 0 0 0 0
2 3 3 2 0 0 0 0 0 0 0 0 0 0 0 0 0 0 0 0 0 0 0 0 0 0 0 0 0 0 0 0 0 0 0 0 0 0 0 0 0 0 0
1 1 1 1 0 0 0 0 0 0 0 0 0 0 0 0 0 0 0 0 0 0 0 0 0 0 0 0 0 0 0 0 0 0 0 0 0 0 0 0 0 0 0
2 2 1 1 1 1 0 0 0 0 0 0 0 0 0 0 0 0 0 0 0 0 0 0 0 0 0 0 0 0 0 0 0 0 0 0 0 0 0 0 0 0 0
2 2 1 2 3 2 1 0 0 0 0 0 0 0 0 0 0 0 0 0 0 0 0 0 0 0 0 0 0 0 0 0 0 0 0 0 0 0 0 0 0 0 0
2 1 2 3 3 2 1 0 0 0 0 0 0 0 0 0 0 0 0 0 0 0 0 0 0 0 0 0 0 0 0 0 0 0 0 0 0 0 0 0 0 0 0
2 2 3 3 3 3 2 1 1 1 0 0 0 0 0 0 0 0 0 0 1 1 1 0 0 0 0 0 0 0 0 0 0 0 0 0 0 0 0 0 0 0 0
3 3 3 3 4 4 3 2 2 1 0 0 0 0 0 1 1 0 0 0 1 2 1 0 0 0 0 0 0 0 0 0 0 0 0 0 0 0 0 0 0 0 0
4 4 4 4 4 4 3 2 1 1 0 0 0 0 1 1 0 0 0 0 1 2 1 0 0 0 0 0 0 0 0 0 0 0 0 0 0 0 0 0 0 0 0
5 5 5 5 4 3 2 2 1 0 0 0 0 0 0 0 0 0 0 0 1 2 1 0 0 0 0 0 0 0 0 0 0 0 0 0 0 0 0 0 0 0 0
5 5 6 6 4 3 2 2 1 1 0 0 0 0 0 0 0 0 0 1 2 2 1 0 0 0 0 0 0 0 0 0 0 0 0 0 0 0 0 0 0 0 0
5 5 5 4 4 3 3 2 2 2 2 1 0 0 0 0 0 0 0 2 3 2 1 0 0 0 0 0 0 0 0 0 0 0 0 0 0 0 0 0 0 0 0
6 6 6 5 4 3 3 3 3 3 3 1 1 1 1 0 1 1 0 1 3 2 1 0 0 0 0 0 0 0 0 0 0 0 0 0 0 0 0 0 0 0 0
10 9 8 7 5 4 3 3 2 3 3 3 3 3 3 2 2 3 2 1 1 1 0 0 0 0 0 0 0 0 0 0 0 0 0 0 0 0 0 0 0 0 0
14 12 11 10 8 5 3 2 1 1 2 3 4 5 4 3 3 3 3 2 0 0 0 0 0 0 0 0 0 0 0 0 0 0 0 0 0 0 0 0 0 0 0
13 12 12 11 9 6 4 2 1 1 1 2 4 4 4 3 2 2 1 1 0 0 0 0 0 0 0 0 0 0 0 0 0 0 0 0 0 0 0 0 0 0 0
11 11 12 12 10 6 4 2 1 1 1 1 3 3 2 2 2 1 0 0 0 0 0 0 0 0 0 0 0 0 0 0 0 0 0 0 0 0 0 0 0 0 0

GEFSMA_con_prob3kmehi_276.txt.gz
EHI
5 4 3 1 0 0 0 0 0 0 0 1 0 0 0 1 2 2 2 2 3 4 4 2 3 4 4 4 3 2 1 0 0 0 0 0 0 0 0 0 0 0 0
4 3 3 2 0 0 0 0 0 0 0 1 0 0 0 0 1 1 1 2 3 4 5 4 3 4 4 4 3 2 1 0 0 0 0 0 0 0 0 0 0 0 0
4 4 4 2 1 1 0 0 0 0 0 0 0 0 0 0 0 0 0 1 1 2 4 4 3 3 3 3 2 1 1 0 0 0 0 0 0 0 0 0 0 0 0
5 6 5 4 3 2 1 0 0 0 0 0 0 0 0 0 0 0 0 0 0 1 2 3 2 2 2 2 1 1 0 0 0 0 0 0 0 0 0 0 0 0 0
4 5 6 6 5 3 1 1 0 0 0 0 0 0 0 0 1 1 0 0 0 0 1 1 2 2 2 2 2 2 1 1 1 0 0 0 0 0 0 0 0 0 0
1 2 5 7 6 4 2 1 0 0 1 1 1 1 1 1 2 1 0 0 0 0 0 1 1 1 1 1 1 2 2 2 2 1 0 0 0 0 0 0 0 0 0
2 2 3 5 7 7 5 2 0 0 1 2 2 2 3 3 2 1 0 0 0 0 0 0 0 0 0 0 1 1 2 3 3 3 1 1 0 0 0 0 0 0 0
3 2 2 4 7 9 7 3 1 0 1 3 3 3 4 4 2 0 0 0 0 0 0 0 0 0 0 1 1 1 1 1 3 4 3 2 1 0 0 0 0 0 0
2 1 2 4 7 8 6 3 1 1 2 3 3 3 3 3 2 1 0 0 0 0 0 1 1 1 1 1 1 1 0 0 1 3 3 3 2 1 0 0 0 0 0
1 1 1 3 5 4 3 3 1 2 4 4 3 3 3 3 2 1 0 0 0 0 0 0 1 1 1 1 1 0 0 0 0 1 2 2 2 1 0 0 0 0 0
2 2 2 3 3 3 2 1 1 2 5 5 4 4 4 3 2 1 0 0 0 0 0 0 0 1 1 1 0 0 0 0 0 0 1 1 1 1 0 0 0 0 0
4 4 4 4 4 3 2 1 0 2 5 5 4 6 6 3 2 2 2 0 0 0 0 0 1 2 3 3 2 0 0 0 0 0 0 0 0 0 0 0 0 0 0
4 5 5 5 4 3 2 1 1 2 3 4 4 6 6 3 2 5 5 2 0 0 0 0 1 3 5 5 3 1 0 0 0 0 0 0 0 0 0 0 0 0 0
5 5 5 4 3 3 2 2 2 2 3 3 4 5 6 4 3 5 6 3 1 0 0 0 1 3 5 5 3 1 0 0 0 0 0 0 0 0 0 0 0 0 0
5 4 3 2 3 3 3 3 4 4 5 5 5 6 6 5 5 5 6 4 3 2 2 2 3 4 4 4 2 2 1 0 0 0 0 0 0 0 0 0 0 0 0
5 4 3 3 3 3 4 5 5 5 6 7 7 7 7 7 7 7 8 7 7 7 5 4 4 5 5 3 2 2 2 1 0 0 0 0 0 0 0 0 0 0 0
6 5 4 4 4 4 4 5 5 5 6 7 7 6 7 8 8 9 11 12 12 12 9 6 5 7 7 3 2 2 2 1 0 0 0 0 0 0 0 0 0 0 0
7 7 6 5 5 5 4 3 4 4 5 5 4 4 6 7 7 9 12 14 14 13 11 7 7 8 6 4 3 2 1 0 0 0 0 0 0 0 0 0 0 0 0
8 8 8 6 5 4 3 3 4 5 6 5 4 4 5 6 6 8 10 13 13 12 11 10 9 8 5 4 3 1 0 0 0 0 0 0 0 0 0 0 0 0 0
9 8 7 6 4 3 2 4 5 6 7 6 5 5 5 5 6 6 8 10 10 10 12 14 12 7 6 5 3 1 1 1 1 0 0 0 0 0 0 0 0 0 0
7 7 6 5 5 3 3 5 6 6 6 6 6 6 6 5 5 4 4 6 7 9 12 13 11 8 7 6 3 1 1 2 2 1 0 0 0 0 0 0 0 0 0
8 8 7 8 7 6 4 5 5 5 6 7 7 7 6 5 4 3 3 2 4 6 9 10 9 8 8 6 3 2 1 1 3 3 1 0 0 0 0 0 0 0 0
12 12 12 13 12 9 5 4 4 4 6 8 8 8 6 5 6 6 4 2 2 3 5 7 8 7 8 7 5 3 2 2 4 4 2 0 1 0 0 0 0 0 0
17 17 17 17 15 11 6 3 4 5 7 8 8 8 8 7 7 8 7 6 6 5 4 4 5 5 6 6 6 4 3 4 4 3 1 0 0 0 0 0 0 0 0
21 20 19 17 14 12 8 4 5 9 12 11 11 11 10 9 8 8 9 9 9 7 4 1 1 2 3 3 4 4 4 4 4 3 2 1 1 1 1 0 0 0 0
22 20 18 16 14 13 10 5 5 12 16 16 16 14 12 9 8 8 10 10 10 8 5 1 0 0 0 1 2 3 4 5 6 5 4 3 2 2 2 1 0 0 0

GEFSMA_con_prob3kmehi_282.txt.gz
EHI
9 9 11 11 9 5 2 1 1 1 1 0 0 0 1 1 1 2 5 8 11 12 11 9 7 6 6 5 5 4 3 2 1 0 0 0 0 0 0 0 0 1 1
13 12 13 12 9 6 4 2 2 2 1 0 0 0 1 2 2 2 3 6 10 12 12 10 8 8 8 7 6 5 3 2 1 1 0 0 0 0 0 0 0 0 1
18 16 13 10 9 9 9 8 6 3 1 1 1 1 1 2 2 2 4 5 8 9 11 10 8 8 8 7 6 5 4 3 2 2 1 0 0 0 0 0 0 0 0
18 15 11 10 10 11 12 11 8 3 1 2 3 2 2 2 1 3 6 7 7 7 9 9 8 6 5 4 4 4 4 4 4 3 1 0 0 0 0 0 0 0 0
13 11 11 12 11 10 10 10 8 6 5 4 3 3 3 3 2 3 6 8 8 8 8 8 7 6 5 5 4 5 6 7 6 4 1 0 0 0 0 0 0 0 0
9 10 12 15 13 10 9 9 10 11 10 6 3 4 6 6 4 4 5 6 6 8 9 9 9 8 6 6 6 6 6 8 8 5 2 0 0 0 0 0 0 0 0
10 10 12 16 16 14 11 10 11 14 13 9 6 6 7 5 4 6 7 6 6 8 11 12 12 11 8 6 5 5 6 6 7 5 3 1 0 0 0 0 0 0 0
11 9 10 13 16 16 14 11 12 12 11 9 8 8 6 3 3 5 8 8 7 8 10 12 15 16 13 9 5 4 3 3 3 3 3 2 0 0 0 0 0 0 0
10 9 9 10 12 13 13 13 12 10 6 6 8 7 5 2 1 3 5 8 10 10 8 9 14 18 17 13 9 5 2 1 1 1 2 1 0 0 0 1 1 0 0
9 10 10 9 9 9 11 13 13 10 6 5 6 6 6 4 2 1 2 7 12 12 9 7 11 16 17 15 13 9 4 1 0 0 1 1 0 0 0 1 1 0 0
11 11 12 12 11 9 11 15 16 14 9 7 5 5 6 5 3 0 1 5 10 11 10 9 10 13 14 15 14 11 5 1 0 0 1 1 0 0 0 1 1 0 0
13 13 15 17 14 10 11 17 18 15 11 8 6 5 6 6 3 1 0 2 4 7 9 10 11 12 12 13 13 10 5 1 0 0 0 0 0 0 0 0 0 0 0
17 17 18 19 15 11 12 15 15 14 12 9 6 5 6 6 5 3 2 1 1 3 6 7 8 10 11 11 11 8 3 1 0 0 0 0 0 0 0 0 0 0 0
19 19 18 17 14 12 13 13 12 11 12 11 7 4 5 7 6 5 5 2 1 1 3 4 5 7 11 11 8 5 3 1 0 0 0 0 0 0 0 0 0 0 0
20 20 18 16 15 13 13 11 9 9 10 10 7 4 4 5 5 6 7 5 3 2 3 3 4 8 12 10 5 4 5 2 0 0 0 0 0 0 0 0 0 0 0
21 22 20 17 15 13 12 10 6 6 7 8 7 4 3 3 4 5 7 7 5 3 3 2 4 10 14 10 4 5 7 4 1 0 0 0 0 0 0 0 0 0 0
23 23 20 17 13 11 11 9 6 5 6 8 7 6 4 4 5 5 6 5 4 3 4 2 3 9 14 13 9 9 8 6 3 1 0 0 0 0 0 0 0 0 0
23 22 19 16 12 9 9 9 8 7 7 7 8 8 8 7 6 5 4 3 2 3 5 5 5 8 11 12 12 11 8 5 3 1 0 0 0 0 0 0 0 0 0
25 23 20 18 14 10 9 11 11 10 8 7 8 9 10 9 7 6 6 5 4 4 5 6 7 9 9 9 9 9 6 4 2 0 0 0 0 0 0 0 0 0 0
29 26 22 21 19 15 12 13 14 13 11 10 9 10 12 11 8 7 7 8 8 6 5 5 7 9 8 7 7 5 3 3 1 0 0 0 0 0 0 0 0 0 0
32 27 24 23 20 14 9 11 14 15 15 14 12 11 11 11 8 6 6 7 9 8 6 5 6 8 8 8 6 3 2 1 1 1 1 1 1 1 0 0 0 0 0
34 29 26 25 20 12 5 6 10 14 15 16 14 12 11 10 10 8 5 4 5 6 6 6 7 8 8 7 5 3 2 2 2 3 3 2 2 1 0 0 0 0 0
36 33 31 28 22 12 5 3 5 10 14 16 16 14 12 10 12 13 9 5 4 3 4 6 7 8 8 8 7 5 5 4 4 5 5 3 2 2 1 0 0 0 0
36 35 33 29 21 13 8 4 3 8 13 16 17 17 15 12 13 14 12 11 10 7 5 5 7 8 7 7 8 7 6 5 6 8 8 6 4 4 2 0 0 0 0
36 35 32 26 18 13 11 7 5 8 13 15 16 16 15 14 13 12 13 15 15 13 10 6 5 6 5 5 6 7 6 5 6 10 12 9 6 5 2 0 0 0 0
37 35 30 22 16 14 13 7 5 10 13 14 15 15 14 13 12 11 13 16 16 15 12 7 4 2 2 2 4 5 6 5 6 11 13 12 7 4 2 1 0 0 0

GEFSMA_con_prob3kmehi_288.txt.gz
EHI
0 0 0 0 0 0 0 0 0 0 0 0 0 0 0 0 0 0 1 2 5 6 6 5 4 3 3 3 4 4 4 3 2 2 3 3 3 3 2 1 0 0 0
0 0 0 0 0 0 0 0 0 0 0 0 0 0 0 0 0 0 0 1 4 6 6 5 5 4 4 4 4 3 3 3 1 1 1 1 2 2 2 1 0 0 0
0 0 0 0 0 0 0 0 0 0 0 0 0 0 0 0 0 0 0 0 1 3 5 7 6 5 5 6 4 3 2 1 0 0 0 0 1 1 1 1 0 0 0
0 1 1 1 0 0 0 0 0 0 0 0 0 0 0 0 0 0 0 0 0 1 3 6 8 7 6 6 5 3 2 1 1 0 0 0 0 0 0 0 0 0 0
0 1 2 1 0 0 0 1 1 1 0 0 0 0 0 0 0 0 0 0 0 0 1 3 6 6 7 7 5 3 3 3 2 1 0 0 0 0 0 0 0 0 0
2 2 3 2 0 1 1 2 2 1 0 0 0 0 0 0 0 0 0 0 0 0 0 1 2 4 6 7 5 3 3 4 4 2 0 0 0 0 0 0 0 0 0
3 3 3 2 2 2 3 3 2 1 0 0 0 0 0 0 0 0 0 1 0 0 0 0 0 1 3 5 5 4 3 3 4 4 3 2 2 1 0 0 0 0 0
2 3 4 3 3 3 3 3 3 1 0 0 0 0 0 0 0 0 0 0 0 1 1 1 0 0 1 1 2 2 3 2 4 5 5 4 4 3 1 0 0 0 0
1 2 4 4 4 4 3 3 3 3 1 0 0 0 0 0 0 0 0 0 0 1 1 1 0 0 0 0 0 1 2 2 3 4 5 4 3 2 0 0 0 0 0
1 2 4 4 4 5 4 3 4 4 2 0 0 0 0 0 0 0 0 0 0 0 0 0 0 0 0 0 0 1 1 1 1 2 3 3 2 1 0 0 0 0 0
3 3 4 4 4 4 3 3 3 3 1 0 0 0 0 0 0 0 0 0 0 0 0 0 0 0 0 0 0 1 1 1 0 1 2 2 2 1 0 0 0 0 0
5 5 5 4 4 3 3 2 1 1 0 0 0 0 0 0 0 0 0 0 0 0 0 0 0 0 0 0 0 1 1 1 0 0 0 1 1 0 0 0 0 0 0
7 6 6 5 4 3 2 1 0 0 0 0 0 0 0 0 0 0 0 0 0 0 0 0 0 0 0 0 0 0 0 0 0 0 0 0 0 0 0 0 0 0 0
5 5 5 5 5 3 1 1 1 0 0 0 0 0 0 0 0 0 0 0 0 0 0 0 0 0 0 0 0 0 0 0 0 0 0 0 0 0 0 0 0 0 0
2 3 3 5 5 4 2 2 1 0 0 0 0 0 0 0 0 0 0 0 0 0 0 0 0 0 0 0 0 0 0 0 0 0 0 0 0 0 0 0 0 0 0
2 2 3 4 5 3 2 2 1 0 0 0 0 0 0 0 0 0 0 0 0 0 0 0 0 0 0 0 0 0 0 0 0 0 0 0 0 0 0 0 0 0 0
1 2 3 4 3 1 1 1 0 0 0 0 0 0 0 0 0 0 0 0 0 0 0 0 0 0 0 0 0 0 0 0 0 0 0 0 0 0 0 0 0 0 0
2 2 3 3 1 0 0 0 0 0 0 0 0 0 0 0 0 0 0 0 0 0 0 0 0 0 0 0 0 0 0 0 0 0 0 0 0 0 0 0 0 0 0
3 3 3 2 1 0 0 0 0 0 0 0 0 0 0 0 0 0 1 1 0 0 1 1 0 0 0 0 0 0 0 0 0 0 0 0 0 0 0 0 0 0 0
5 4 3 2 1 1 1 0 0 0 0 0 0 0 0 0 0 0 1 1 2 2 2 1 0 0 0 0 0 0 0 0 0 0 0 0 0 0 0 0 0 0 0
6 5 3 3 2 2 2 1 1 1 0 0 0 0 0 0 0 0 0 2 3 3 3 2 1 1 0 0 0 0 0 0 0 0 0 0 0 0 0 0 0 0 0
9 7 5 4 3 3 3 2 2 2 1 0 0 0 0 1 1 1 1 1 2 3 3 3 2 1 0 0 0 0 0 0 0 0 0 0 0 0 0 0 0 0 0
13 11 9 6 4 3 3 1 1 2 1 0 0 0 1 2 3 3 2 1 1 1 2 2 2 1 0 0 0 0 0 0 0 0 0 0 0 0 0 0 0 0 0
16 15 12 8 5 4 2 1 0 1 1 0 0 1 2 4 4 3 2 1 0 0 1 1 1 0 0 1 0 0 0 1 1 1 1 1 1 0 0 0 0 0 0
21 19 14 9 6 5 3 1 0 0 0 0 0 1 3 4 3 2 1 1 0 0 0 0 0 0 0 0 0 0 0 1 2 2 2 2 2 1 0 0 0 0 0
24 21 15 10 7 6 4 1 0 0 0 0 0 1 2 3 3 1 1 1 1 0 0 0 0 0 0 0 0 0 0 1 3 3 3 3 3 2 1 0 0 0 0